Location: Newark
(41.4333°N, 15.1167°E)
Time: 03:11:41
(UTC+00:00)

Envisat - Visible Passes

Search period start: 10 December 2019 00:00
Search period end: 20 December 2019 00:00
Orbit: 764 x 766 km, 98.1° (Epoch: 09 December)

Date Brightness Start Highest point End Pass type
(mag) Time Alt. Az. Time Alt. Az. Time Alt. Az.
10 Dec 5.8 04:43:51 10° NE 04:47:29 19° E 04:51:04 10° SE visible
10 Dec 3.9 15:58:23 10° ESE 16:02:33 26° ENE 16:06:44 10° N visible
10 Dec 4.5 17:36:42 10° SSW 17:41:23 37° W 17:46:06 10° NNW visible
11 Dec 3.0 16:59:26 10° SSE 17:04:31 84° WSW 17:09:38 10° NNW visible
12 Dec 4.9 05:08:34 10° NNE 05:13:10 33° E 05:17:44 10° SSE visible
12 Dec 3.3 16:23:03 10° SE 16:27:51 44° ENE 16:32:40 10° N visible
12 Dec 5.4 18:03:14 10° SW 18:07:04 21° W 18:10:55 10° NW visible
13 Dec 6.0 04:33:09 10° NE 04:36:05 15° E 04:38:59 10° SE visible
13 Dec 4.0 17:25:11 10° S 17:30:03 47° W 17:34:58 10° NNW visible
14 Dec 3.7 05:33:44 10° NNE 05:38:46 59° E 05:43:46 10° S visible
14 Dec 2.9 16:48:11 10° SSE 16:53:15 78° ENE 16:58:21 10° N visible
14 Dec 6.1 18:30:59 10° WSW 18:32:51 12° W 18:34:43 10° WNW visible
15 Dec 5.3 04:57:32 10° NE 05:01:49 27° E 05:06:04 10° SSE visible
15 Dec 3.5 16:12:03 10° SE 16:16:38 36° ENE 16:21:14 10° N visible
15 Dec 5.1 17:51:26 10° SSW 17:55:41 27° W 17:59:59 10° NW visible
16 Dec 6.2 04:22:53 10° ENE 04:24:40 12° E 04:26:26 10° ESE visible
16 Dec 3.5 17:13:45 10° S 17:18:45 60° W 17:23:47 10° NNW visible
17 Dec 4.2 05:22:33 10° NNE 05:27:27 46° E 05:32:19 10° S visible
17 Dec 3.0 16:37:00 10° SSE 16:42:00 62° ENE 16:47:01 10° N visible
17 Dec 5.9 18:18:28 10° SW 18:21:26 15° W 18:24:24 10° NW visible
18 Dec 5.7 04:46:37 10° NE 04:50:27 21° E 04:54:16 10° SE visible
18 Dec 3.8 16:01:09 10° SE 16:05:27 29° ENE 16:09:45 10° N visible
18 Dec 4.7 17:39:45 10° SSW 17:44:20 34° W 17:48:58 10° NNW visible
19 Dec 3.1 17:02:23 10° S 17:07:27 77° WSW 17:12:34 10° NNW visible
